Printer-friendly version
Follow the MPC on Twitter Follow the MPC on Facebook The MPC blog
Minor Planet Center

MPEC 2010-O26 : 2010 OR1

The following Minor Planet Electronic Circular may be linked-to from your own Web pages, but must not otherwise be redistributed electronically.

A form allowing access to any MPEC is at the bottom of this page.


Read MPEC 2010-O25 Read MPEC 2010-O27


M.P.E.C. 2010-O26                                Issued 2010 July 23, 16:12 UT

     The Minor Planet Electronic Circulars contain information on unusual
         minor planets and routine data on comets.  They are published
   on behalf of Commission 20 of the International Astronomical Union by the
          Minor Planet Center, Smithsonian Astrophysical Observatory,
                          Cambridge, MA 02138, U.S.A.

             Prepared using the Tamkin Foundation Computer Network

                              MPC@CFA.HARVARD.EDU
       URL http://www.minorplanetcenter.org/iau/mpc.html  ISSN 1523-6714

                                   2010 OR1

Observations:
     K10O01R* S2010 07 16.41885 00 46 52.29 +32 11 42.8          19   R EO026C51
     K10O01R  s2010 07 16.41885 1 + 5112.9353 + 2528.3577 + 3885.7917   EO026C51
     K10O01R  S2010 07 16.55115 00 46 35.93 +32 10 43.2                 EO026C51
     K10O01R  s2010 07 16.55115 1 + 5106.2446 + 2539.6690 + 3887.4851   EO026C51
     K10O01R  S2010 07 16.68345 00 46 19.51 +32 09 42.9                 EO026C51
     K10O01R  s2010 07 16.68345 1 + 5100.0964 + 2551.3145 + 3887.6486   EO026C51
     K10O01R  S2010 07 16.74967 00 46 11.27 +32 09 12.4                 EO026C51
     K10O01R  s2010 07 16.74967 1 + 5120.9884 + 2561.7205 + 3853.1001   EO026C51
     K10O01R  S2010 07 16.81576 00 46 03.02 +32 08 41.6                 EO026C51
     K10O01R  s2010 07 16.81576 1 + 5094.6440 + 2562.9758 + 3886.8024   EO026C51
     K10O01R  S2010 07 16.88185 00 45 54.71 +32 08 10.9                 EO026C51
     K10O01R  s2010 07 16.88185 1 + 5067.9361 + 2563.9644 + 3920.9521   EO026C51
     K10O01R  S2010 07 16.88197 00 45 54.69 +32 08 11.1                 EO026C51
     K10O01R  s2010 07 16.88197 1 + 5115.5257 + 2573.1958 + 3852.7330   EO026C51
     K10O01R  S2010 07 17.01415 00 45 38.07 +32 07 08.4                 EO026C51
     K10O01R  s2010 07 17.01415 1 + 5061.8885 + 2575.5855 + 3921.5562   EO026C51
     K10O01R  S2010 07 17.14645 00 45 21.36 +32 06 07.4                 EO026C51
     K10O01R  s2010 07 17.14645 1 + 5055.5608 + 2587.1406 + 3922.3199   EO026C51
     K10O01R KC2010 07 22.04348 00 33 58.42 +31 20 05.1                 EO026118
     K10O01R KC2010 07 22.04932 00 33 57.54 +31 20 00.9                 EO026118
     K10O01R KC2010 07 22.05585 00 33 56.52 +31 19 56.9                 EO026118
     K10O01R KC2010 07 22.36215 00 33 09.48 +31 16 33.3          20.2 C EO026H36
     K10O01R KC2010 07 22.37119 00 33 07.96 +31 16 26.5          19.7 C EO026H36
     K10O01R KC2010 07 22.38386 00 33 05.95 +31 16 18.2          20.3 C EO026H36
     K10O01R %C2010 07 22.38776 00 33 05.55 +31 16 15.6          18.9 R EO026H06
     K10O01R %C2010 07 22.39189 00 33 04.89 +31 16 12.3          19.1 R EO026H06
     K10O01R %C2010 07 22.39808 00 33 03.89 +31 16 08.0          19.2 R EO026H06
     K10O01R %C2010 07 22.40118 00 33 03.41 +31 16 05.4          19.0 R EO026H06
     K10O01R KC2010 07 23.33271 00 30 36.74 +31 05 14.3          20.3 V EO026H21
     K10O01R  C2010 07 23.33459000 30 36.43 +31 05 12.7          19.9 V EO026H21
     K10O01R KC2010 07 23.33675 00 30 36.07 +31 05 11.2          19.9 V EO026H21
     K10O01R  C2010 07 23.33773000 30 35.91 +31 05 10.5          19.9 V EO026H21
     K10O01R  C2010 07 23.34077700 30 35.42 +31 05 08.3          19.9 V EO026H21
     K10O01R KC2010 07 23.34257 00 30 35.14 +31 05 07.3          19.7 V EO026H21
     K10O01R KC2010 07 23.38909 00 30 27.81 +31 04 32.5          18.9 C EO026H36
     K10O01R KC2010 07 23.39280 00 30 26.90 +31 04 31.1          19.3 C EO026H36

Observer details:
118 Modra.  Observer S. Gajdos.  0.6-m f/5.5 reflector + CCD.
C51 WISE.  Observer W. Infrared Survey Explorer.  Measurers A. K. Mainzer,
    E. L. Wright, J. M. Bauer, T. Grav, J. W. Dailey, J. R. Masiero,
    R. M. Cutri.
H06 RAS Observatory, Mayhill.  Observers E. Guido, G. Sostero, V. Gonano,
    L. Donato.  0.25-m f/3.4 reflector + CCD.
H21 Astronomical Research Observatory, Westfield.  Observer R. Holmes.
    Measurers S. Foglia, H. Devore.  0.61-m f/4.0 astrograph + CCD.
H36 Sandlot Observatory, Scranton.  Observer G. Hug.  0.56-m reflector + CCD.

Orbital elements:
2010 OR1
Epoch 2010 July 23.0 TT = JDT 2455400.5                 MPC
M   0.06071              (2000.0)            P               Q
n   0.00575712     Peri.  139.66407     +0.91874594     +0.08758997
a  30.8318063      Node   139.20217     -0.24544778     -0.63710820
e   0.9333605      Incl.  143.89616     +0.30929157     -0.76578139
P 171.20           H   15.9           G   0.15           U   7
Residuals in seconds of arc
100716 C51  0.1+  0.4-    100722 118  0.1+  0.2+    100722 H06  0.0   1.2-
100716 C51  0.2-  0.0     100722 118  0.4+  0.2-    100723 H21  0.0   0.3+
100716 C51  0.1-  0.1+    100722 118  0.2+  0.1+    100723 H21  0.1-  0.1+
100716 C51  0.1+  0.1+    100722 H36  0.3+  0.8+    100723 H21  0.2-  0.1+
100716 C51  0.2+  0.1-    100722 H36  1.0-  0.1+    100723 H21  0.2-  0.1+
100716 C51  0.2-  0.1-    100722 H36  1.4-  0.3+    100723 H21  0.2-  0.1+
100716 C51  0.2-  0.1+    100722 H06  0.5+  0.0     100723 H21  0.1-  0.4+
100717 C51  0.2-  0.7-    100722 H06  0.3+  0.5-    100723 H36  2.2+  1.0-
100717 C51  0.1+  0.8+    100722 H06  0.1-  0.7-    100723 H36  1.8-  0.3+

Ephemeris:
2010 OR1                 a,e,i = 30.83, 0.93, 144                q = 2.0546
Date    TT    R. A. (2000) Decl.     Delta      r     Elong.  Phase     V
2010 07 23    00 31.49   +31 09.2    1.643    2.058    98.7    29.2    19.8
2010 08 02    00 00.05   +28 24.1    1.431    2.068   114.4    26.5    19.5
2010 08 12    23 18.14   +23 26.9    1.260    2.085   132.7    20.9    19.0
2010 08 22    22 28.47   +15 40.6    1.162    2.107   151.7    13.2    18.6
2010 09 01    21 38.28   +05 55.5    1.163    2.136   159.0     9.8    18.5
2010 09 11    20 55.24   -03 31.6    1.268    2.170   144.9    15.5    18.9
2010 09 21    20 22.85   -11 01.7    1.453    2.209   127.2    21.2    19.5
2010 10 01    20 00.56   -16 25.7    1.688    2.254   111.2    24.5    19.9
2010 10 11    19 46.29   -20 14.3    1.950    2.302    97.4    25.5    20.3
2010 10 21    19 37.97   -22 58.2    2.220    2.355    85.1    24.9    20.6
2010 10 31    19 33.97   -24 59.6    2.489    2.411    73.9    23.3    20.9
2010 11 10    19 33.11   -26 32.8    2.747    2.471    63.5    21.0    21.1

Sonia Keys                   (C) Copyright 2010 MPC           M.P.E.C. 2010-O26

Read MPEC 2010-O25 Read MPEC 2010-O27


MPEC number:

Enter an MPEC number in one of the following forms:

  • 1997-B01 (the full form)
  • J97B01 (the packed version of the full form)
  • B01 (the abbreviated form)

Valid HTML 4.01!